RYR18RQ EPLL-LIME

Flight info

Callsign RYR18RQ
Flight time 1h 31m
Altitude 38000
Route BAXIS DCT UVIVI DCT AGALU N869 TOMTI DCT ASTEL DCT RUDAP DCT EBEDA DCT BADVI DCT BERAS DCT LIKDA DCT EKPEB DCT RENTA DCT ATPED DCT LUSIL T772 EKLIB
Aircraft B38M/M-SDE1FGHILORVWXY/HB1

Departure

Time 2026-04-22 18:42
Airport Łódź Władysław Reymont Airport (EPLL)

Arrival

Time 2026-04-22 20:13
Airport Il Caravaggio International Airport (LIME)
Time Latitude Longitude Altitude Speed Heading
2026-04-22 18:18 51.72605 19.40096 627 ft 0 kts 341°
2026-04-22 18:33 51.72590 19.40103 622 ft 4 kts 350°
2026-04-22 18:33 51.72564 19.40102 626 ft 4 kts 21°
2026-04-22 18:33 51.72548 19.40079 615 ft 2 kts 70°
2026-04-22 18:34 51.72547 19.40076 615 ft 1 kts 71°
2026-04-22 18:38 51.72550 19.40091 614 ft 4 kts 71°
2026-04-22 18:38 51.72565 19.40163 625 ft 10 kts 71°
2026-04-22 18:39 51.72567 19.40428 625 ft 14 kts 130°
2026-04-22 18:39 51.72506 19.40526 616 ft 11 kts 148°
2026-04-22 18:39 51.72486 19.40541 620 ft 0 kts 157°
2026-04-22 18:40 51.72481 19.40545 620 ft 2 kts 157°
2026-04-22 18:40 51.72453 19.40564 616 ft 8 kts 157°
2026-04-22 18:41 51.72377 19.40608 621 ft 8 kts 184°
2026-04-22 18:41 51.72351 19.40550 622 ft 8 kts 251°
2026-04-22 18:41 51.72295 19.40292 621 ft 58 kts 250°
2026-04-22 18:41 51.72069 19.39257 623 ft 135 kts 251°
2026-04-22 18:42 51.71699 19.37545 902 ft 177 kts 250°
2026-04-22 18:42 51.71281 19.35606 1878 ft 186 kts 254°
2026-04-22 18:42 51.70853 19.33638 2864 ft 188 kts 256°
2026-04-22 18:42 51.70385 19.31549 3446 ft 207 kts 256°
2026-04-22 18:43 51.69884 19.29266 3961 ft 225 kts 259°
2026-04-22 18:43 51.69874 19.26807 4395 ft 220 kts 287°
2026-04-22 18:43 51.70041 19.24306 4937 ft 232 kts 270°
2026-04-22 18:43 51.69698 19.21704 5466 ft 247 kts 258°
2026-04-22 18:44 51.69260 19.18997 6011 ft 257 kts 261°
2026-04-22 18:44 51.68807 19.16161 6554 ft 265 kts 260°
2026-04-22 18:44 51.68334 19.13279 7091 ft 268 kts 260°
2026-04-22 18:44 51.67843 19.10347 7631 ft 273 kts 259°
2026-04-22 18:45 51.67340 19.07378 8202 ft 277 kts 259°
2026-04-22 18:45 51.66824 19.04361 8771 ft 281 kts 259°
2026-04-22 18:45 51.66300 19.01305 9370 ft 286 kts 259°
2026-04-22 18:45 51.65765 18.98197 9972 ft 290 kts 259°
2026-04-22 18:46 51.65221 18.95044 10523 ft 294 kts 259°
2026-04-22 18:46 51.64665 18.91832 11061 ft 304 kts 259°
2026-04-22 18:46 51.64083 18.88457 11527 ft 323 kts 258°
2026-04-22 18:46 51.63464 18.84884 12029 ft 339 kts 258°
2026-04-22 18:47 51.62818 18.81161 12627 ft 351 kts 258°
2026-04-22 18:47 51.62157 18.77370 13504 ft 353 kts 258°
2026-04-22 18:47 51.61486 18.73529 14158 ft 361 kts 258°
2026-04-22 18:47 51.60802 18.69625 14889 ft 364 kts 258°
2026-04-22 18:48 51.60110 18.65681 15539 ft 370 kts 258°
2026-04-22 18:48 51.59406 18.61679 16206 ft 374 kts 258°
2026-04-22 18:48 51.58692 18.57630 16845 ft 379 kts 258°
2026-04-22 18:48 51.57967 18.53526 17480 ft 384 kts 258°
2026-04-22 18:49 51.57233 18.49385 18105 ft 388 kts 258°
2026-04-22 18:49 51.56486 18.45182 18683 ft 393 kts 258°
2026-04-22 18:49 51.55730 18.40938 19230 ft 396 kts 257°
2026-04-22 18:49 51.54968 18.36668 19778 ft 399 kts 257°
2026-04-22 18:50 51.54200 18.32371 20327 ft 402 kts 257°
2026-04-22 18:50 51.53432 18.28090 20847 ft 406 kts 257°
2026-04-22 18:50 51.52647 18.23721 21387 ft 409 kts 257°
2026-04-22 18:50 51.51845 18.19264 21923 ft 412 kts 256°
2026-04-22 18:51 51.51055 18.14889 22441 ft 415 kts 256°
2026-04-22 18:51 51.50246 18.10421 22956 ft 419 kts 256°
2026-04-22 18:51 51.49430 18.05923 23483 ft 422 kts 256°
2026-04-22 18:51 51.48604 18.01386 23949 ft 425 kts 256°
2026-04-22 18:52 51.47772 17.96821 24382 ft 428 kts 256°
2026-04-22 18:52 51.46930 17.92219 24786 ft 432 kts 255°
2026-04-22 18:52 51.46079 17.87576 25188 ft 436 kts 255°
2026-04-22 18:52 51.45217 17.82883 25593 ft 440 kts 255°
2026-04-22 18:53 51.44347 17.78162 25994 ft 443 kts 255°
2026-04-22 18:53 51.43755 17.74955 26263 ft 446 kts 255°
2026-04-22 18:53 51.42582 17.68618 26776 ft 450 kts 255°
2026-04-22 18:53 51.41686 17.63792 27179 ft 454 kts 255°
2026-04-22 18:54 51.40782 17.58932 27564 ft 457 kts 255°
2026-04-22 18:54 51.39869 17.54044 27939 ft 460 kts 255°
2026-04-22 18:54 51.38946 17.49111 28309 ft 463 kts 255°
2026-04-22 18:54 51.38016 17.44153 28669 ft 467 kts 254°
2026-04-22 18:55 51.37078 17.39168 29036 ft 470 kts 254°
2026-04-22 18:55 51.36130 17.34141 29403 ft 473 kts 254°
2026-04-22 18:55 51.35175 17.29092 29755 ft 476 kts 254°
2026-04-22 18:55 51.34212 17.24014 30097 ft 479 kts 254°
2026-04-22 18:56 51.33242 17.18916 30402 ft 482 kts 254°
2026-04-22 18:56 51.32261 17.13774 30670 ft 485 kts 254°
2026-04-22 18:56 51.31273 17.08606 30921 ft 488 kts 253°
2026-04-22 18:56 51.30276 17.03406 31173 ft 491 kts 253°
2026-04-22 18:57 51.29270 16.98171 31424 ft 495 kts 253°
2026-04-22 18:57 51.28252 16.92894 31673 ft 498 kts 253°
2026-04-22 18:57 51.27228 16.87595 31913 ft 501 kts 253°
2026-04-22 18:57 51.26193 16.82259 32150 ft 504 kts 253°
2026-04-22 18:58 51.25153 16.76907 32384 ft 507 kts 253°
2026-04-22 18:58 51.24101 16.71514 32623 ft 510 kts 252°
2026-04-22 18:58 51.23041 16.66089 32849 ft 514 kts 252°
2026-04-22 18:58 51.21971 16.60633 33072 ft 517 kts 252°
2026-04-22 18:59 51.20893 16.55147 33300 ft 520 kts 252°
2026-04-22 18:59 51.19804 16.49630 33533 ft 523 kts 252°
2026-04-22 18:59 51.18709 16.44088 33783 ft 525 kts 252°
2026-04-22 18:59 51.17607 16.38535 34098 ft 526 kts 252°
2026-04-22 19:00 51.16501 16.32974 34365 ft 527 kts 252°
2026-04-22 19:00 51.15391 16.27405 34664 ft 527 kts 252°
2026-04-22 19:00 51.14282 16.21856 35080 ft 524 kts 252°
2026-04-22 19:00 51.13177 16.16350 35518 ft 520 kts 252°
2026-04-22 19:01 51.12093 16.10963 35949 ft 516 kts 252°
2026-04-22 19:01 51.11000 16.05545 36371 ft 513 kts 252°
2026-04-22 19:01 51.09913 16.00171 36791 ft 509 kts 252°
2026-04-22 19:01 51.08829 15.94828 37181 ft 506 kts 252°
2026-04-22 19:02 51.07750 15.89520 37550 ft 503 kts 252°
2026-04-22 19:02 51.06673 15.84241 37935 ft 500 kts 252°
2026-04-22 19:02 51.05600 15.78991 38226 ft 498 kts 252°
2026-04-22 19:02 51.04522 15.73735 38229 ft 496 kts 252°
2026-04-22 19:03 51.02391 15.63380 38239 ft 494 kts 252°
2026-04-22 19:03 51.00245 15.53007 38241 ft 494 kts 252°
2026-04-22 19:04 50.98096 15.42675 38237 ft 493 kts 252°
2026-04-22 19:04 50.95937 15.32343 38243 ft 493 kts 252°
2026-04-22 19:05 50.93833 15.22000 38245 ft 492 kts 253°
2026-04-22 19:05 50.91725 15.11680 38247 ft 492 kts 253°
2026-04-22 19:06 50.89614 15.01399 38248 ft 491 kts 252°
2026-04-22 19:07 50.85560 14.86652 38247 ft 488 kts 228°
2026-04-22 19:07 50.83118 14.82992 38248 ft 483 kts 213°
2026-04-22 19:07 50.80335 14.79988 38237 ft 485 kts 212°
2026-04-22 19:08 50.75672 14.75090 38271 ft 485 kts 211°
2026-04-22 19:08 50.70012 14.69300 38267 ft 485 kts 211°
2026-04-22 19:09 50.64344 14.63554 38273 ft 485 kts 211°
2026-04-22 19:09 50.58665 14.57817 38264 ft 485 kts 211°
2026-04-22 19:10 50.52992 14.52101 38266 ft 484 kts 211°
2026-04-22 19:10 50.47312 14.46395 38269 ft 485 kts 211°
2026-04-22 19:11 50.41628 14.40703 38268 ft 485 kts 211°
2026-04-22 19:11 50.35949 14.35030 38268 ft 484 kts 211°
2026-04-22 19:12 50.30263 14.29368 38266 ft 484 kts 211°
2026-04-22 19:12 50.24582 14.23726 38268 ft 484 kts 211°
2026-04-22 19:13 50.18900 14.18100 38265 ft 484 kts 211°
2026-04-22 19:13 50.13219 14.12490 38267 ft 483 kts 211°
2026-04-22 19:14 50.07534 14.06893 38267 ft 483 kts 211°
2026-04-22 19:14 50.01846 14.01310 38275 ft 483 kts 211°
2026-04-22 19:15 49.96164 13.95747 38282 ft 483 kts 211°
2026-04-22 19:15 49.90511 13.90228 38293 ft 483 kts 211°
2026-04-22 19:16 49.84821 13.84689 38301 ft 483 kts 211°
2026-04-22 19:16 49.79128 13.79163 38299 ft 483 kts 211°
2026-04-22 19:17 49.73427 13.73645 38297 ft 483 kts 211°
2026-04-22 19:17 49.67727 13.68142 38299 ft 483 kts 211°
2026-04-22 19:18 49.62020 13.62649 38298 ft 483 kts 211°
2026-04-22 19:18 49.56312 13.57170 38298 ft 484 kts 211°
2026-04-22 19:19 49.50593 13.51696 38296 ft 484 kts 211°
2026-04-22 19:19 49.44869 13.46232 38301 ft 484 kts 211°
2026-04-22 19:20 49.39149 13.40787 38302 ft 484 kts 211°
2026-04-22 19:20 49.33420 13.35345 38305 ft 484 kts 211°
2026-04-22 19:21 49.27686 13.29914 38308 ft 484 kts 211°
2026-04-22 19:21 49.22086 13.24211 38311 ft 484 kts 216°
2026-04-22 19:22 49.16604 13.18245 38304 ft 483 kts 215°
2026-04-22 19:22 49.11109 13.12337 38305 ft 483 kts 215°
2026-04-22 19:23 49.05614 13.06451 38299 ft 482 kts 215°
2026-04-22 19:23 49.00120 13.00581 38297 ft 482 kts 215°
2026-04-22 19:24 48.94615 12.94716 38296 ft 483 kts 215°
2026-04-22 19:24 48.89111 12.88867 38290 ft 483 kts 215°
2026-04-22 19:25 48.83598 12.83026 38284 ft 483 kts 215°
2026-04-22 19:25 48.78080 12.77195 38281 ft 483 kts 215°
2026-04-22 19:26 48.72563 12.71381 38279 ft 483 kts 215°
2026-04-22 19:26 48.67050 12.65588 38274 ft 482 kts 215°
2026-04-22 19:27 48.61567 12.59840 38276 ft 482 kts 215°
2026-04-22 19:27 48.56021 12.54043 38270 ft 481 kts 215°
2026-04-22 19:28 48.50557 12.48347 38272 ft 480 kts 215°
2026-04-22 19:28 48.45070 12.42642 38275 ft 479 kts 215°
2026-04-22 19:29 48.39581 12.36950 38280 ft 479 kts 215°
2026-04-22 19:29 48.34094 12.31276 38279 ft 479 kts 215°
2026-04-22 19:30 48.29496 12.26533 38279 ft 479 kts 215°
2026-04-22 19:30 48.23112 12.19961 38286 ft 479 kts 216°
2026-04-22 19:31 48.17599 12.14329 38283 ft 480 kts 212°
2026-04-22 19:31 48.14585 12.12222 38280 ft 479 kts 197°
2026-04-22 19:31 48.11385 12.10817 38268 ft 481 kts 197°
2026-04-22 19:32 48.04963 12.07991 38276 ft 482 kts 196°
2026-04-22 19:32 47.98516 12.05244 38284 ft 482 kts 196°
2026-04-22 19:33 47.92065 12.02512 38282 ft 482 kts 196°
2026-04-22 19:33 47.85619 11.99789 38281 ft 481 kts 196°
2026-04-22 19:34 47.79173 11.97074 38284 ft 481 kts 196°
2026-04-22 19:34 47.72754 11.94303 38289 ft 480 kts 199°
2026-04-22 19:35 47.67459 11.91765 38286 ft 480 kts 198°
2026-04-22 19:35 47.61096 11.88759 38292 ft 480 kts 198°
2026-04-22 19:36 47.53650 11.85256 38282 ft 480 kts 199°
2026-04-22 19:36 47.47281 11.82268 38256 ft 481 kts 199°
2026-04-22 19:36 47.44096 11.80776 37984 ft 480 kts 199°
2026-04-22 19:37 47.40918 11.79289 37700 ft 479 kts 199°
2026-04-22 19:37 47.37734 11.77809 37426 ft 480 kts 197°
2026-04-22 19:37 47.34463 11.76944 37132 ft 479 kts 182°
2026-04-22 19:37 47.31123 11.76771 36876 ft 481 kts 183°
2026-04-22 19:38 47.27782 11.76537 36591 ft 481 kts 183°
2026-04-22 19:38 47.24429 11.76332 36341 ft 482 kts 182°
2026-04-22 19:38 47.21080 11.76144 36079 ft 482 kts 182°
2026-04-22 19:38 47.17735 11.75959 35816 ft 482 kts 182°
2026-04-22 19:39 47.14381 11.75775 35566 ft 482 kts 182°
2026-04-22 19:39 47.11030 11.75592 35319 ft 482 kts 182°
2026-04-22 19:39 47.07680 11.75410 35043 ft 482 kts 182°
2026-04-22 19:39 47.04330 11.75170 34795 ft 482 kts 188°
2026-04-22 19:40 47.01098 11.74009 34529 ft 477 kts 204°
2026-04-22 19:40 46.98148 11.71814 34294 ft 476 kts 211°
2026-04-22 19:40 46.95253 11.69451 34002 ft 475 kts 211°
2026-04-22 19:40 46.92398 11.67067 33711 ft 471 kts 212°
2026-04-22 19:41 46.89565 11.64672 33412 ft 470 kts 212°
2026-04-22 19:41 46.86741 11.62265 33229 ft 469 kts 213°
2026-04-22 19:41 46.83921 11.59860 33215 ft 470 kts 213°
2026-04-22 19:42 46.78280 11.55054 33208 ft 469 kts 213°
2026-04-22 19:42 46.72681 11.50293 33179 ft 468 kts 213°
2026-04-22 19:43 46.65388 11.41266 33164 ft 459 kts 230°
2026-04-22 19:43 46.61049 11.34452 33163 ft 458 kts 231°
2026-04-22 19:44 46.56751 11.27631 33159 ft 458 kts 231°
2026-04-22 19:44 46.52450 11.20813 33150 ft 457 kts 231°
2026-04-22 19:45 46.50328 11.17454 33119 ft 444 kts 231°
2026-04-22 19:45 46.48270 11.14202 33042 ft 430 kts 231°
2026-04-22 19:45 46.46279 11.11058 32911 ft 417 kts 232°
2026-04-22 19:45 46.44325 11.07974 32511 ft 417 kts 232°
2026-04-22 19:46 46.42354 11.04871 31926 ft 420 kts 232°
2026-04-22 19:46 46.40379 11.01762 31441 ft 419 kts 232°
2026-04-22 19:46 46.38406 10.98662 30986 ft 416 kts 232°
2026-04-22 19:46 46.36449 10.95591 30527 ft 414 kts 232°
2026-04-22 19:47 46.34504 10.92540 30013 ft 412 kts 232°
2026-04-22 19:47 46.32568 10.89508 29483 ft 409 kts 232°
2026-04-22 19:47 46.31302 10.87504 29153 ft 405 kts 234°
2026-04-22 19:47 46.29434 10.82977 28478 ft 390 kts 249°
2026-04-22 19:48 46.28208 10.79503 28102 ft 386 kts 248°
2026-04-22 19:48 46.26997 10.76074 27660 ft 382 kts 248°
2026-04-22 19:48 46.25803 10.72669 27227 ft 378 kts 248°
2026-04-22 19:48 46.24622 10.69289 26774 ft 375 kts 248°
2026-04-22 19:49 46.23453 10.65943 26376 ft 372 kts 248°
2026-04-22 19:49 46.22577 10.63435 26030 ft 371 kts 248°
2026-04-22 19:49 46.21368 10.59979 25562 ft 373 kts 248°
2026-04-22 19:49 46.20976 10.58857 25423 ft 373 kts 248°
2026-04-22 19:50 46.19804 10.55513 25010 ft 372 kts 248°
2026-04-22 19:50 46.18637 10.52189 24596 ft 371 kts 248°
2026-04-22 19:50 46.17471 10.48869 24153 ft 371 kts 247°
2026-04-22 19:50 46.16306 10.45553 23720 ft 370 kts 247°
2026-04-22 19:51 46.15144 10.42255 23166 ft 368 kts 247°
2026-04-22 19:51 46.13989 10.38979 22691 ft 364 kts 247°
2026-04-22 19:51 46.12850 10.35751 22310 ft 359 kts 247°
2026-04-22 19:51 46.11722 10.32559 21904 ft 356 kts 246°
2026-04-22 19:52 46.10600 10.29390 21495 ft 353 kts 246°
2026-04-22 19:52 46.09493 10.26263 21096 ft 349 kts 246°
2026-04-22 19:52 46.08390 10.23155 20696 ft 348 kts 246°
2026-04-22 19:52 46.07287 10.20046 20287 ft 350 kts 246°
2026-04-22 19:53 46.06179 10.16931 19888 ft 349 kts 246°
2026-04-22 19:53 46.05066 10.13815 19467 ft 350 kts 244°
2026-04-22 19:53 46.04159 10.11889 19131 ft 354 kts 231°
2026-04-22 19:53 46.01646 10.08825 18600 ft 354 kts 220°
2026-04-22 19:54 45.99703 10.06649 18053 ft 354 kts 220°
2026-04-22 19:54 45.97759 10.04495 17590 ft 352 kts 219°
2026-04-22 19:54 45.95822 10.02364 17165 ft 349 kts 219°
2026-04-22 19:54 45.94547 10.00964 16900 ft 346 kts 219°
2026-04-22 19:55 45.92644 9.98881 16505 ft 343 kts 219°
2026-04-22 19:55 45.90773 9.96836 16349 ft 332 kts 219°
2026-04-22 19:55 45.88954 9.94844 15996 ft 328 kts 219°
2026-04-22 19:55 45.87141 9.92860 15618 ft 325 kts 219°
2026-04-22 19:56 45.85348 9.90900 15259 ft 323 kts 219°
2026-04-22 19:56 45.83569 9.88960 14866 ft 321 kts 218°
2026-04-22 19:56 45.81794 9.87026 14476 ft 319 kts 218°
2026-04-22 19:56 45.80034 9.85109 14119 ft 317 kts 218°
2026-04-22 19:57 45.78286 9.83208 13721 ft 315 kts 218°
2026-04-22 19:57 45.76549 9.81320 13314 ft 312 kts 218°
2026-04-22 19:57 45.74829 9.79452 12948 ft 309 kts 218°
2026-04-22 19:57 45.73121 9.77599 12558 ft 307 kts 218°
2026-04-22 19:58 45.71422 9.75759 12152 ft 305 kts 218°
2026-04-22 19:58 45.69740 9.73939 11807 ft 302 kts 218°
2026-04-22 19:58 45.67934 9.72457 11402 ft 300 kts 197°
2026-04-22 19:58 45.65882 9.72143 11028 ft 297 kts 172°
2026-04-22 19:59 45.63923 9.72949 10707 ft 292 kts 156°
2026-04-22 20:00 45.52905 9.79568 9192 ft 267 kts 164°
2026-04-22 20:00 45.51125 9.80018 9202 ft 264 kts 171°
2026-04-22 20:01 45.49288 9.80413 9179 ft 269 kts 170°
2026-04-22 20:01 45.47437 9.80818 9168 ft 269 kts 170°
2026-04-22 20:01 45.45558 9.81233 9159 ft 270 kts 170°
2026-04-22 20:01 45.43728 9.81639 9156 ft 270 kts 170°
2026-04-22 20:02 45.41850 9.82056 9138 ft 270 kts 170°
2026-04-22 20:02 45.40021 9.82463 9131 ft 270 kts 170°
2026-04-22 20:02 45.38165 9.82875 9130 ft 270 kts 170°
2026-04-22 20:02 45.36308 9.83288 9127 ft 268 kts 170°
2026-04-22 20:03 45.34492 9.83692 9124 ft 261 kts 169°
2026-04-22 20:03 45.32815 9.84529 9083 ft 254 kts 142°
2026-04-22 20:03 45.31656 9.86353 9070 ft 248 kts 114°
2026-04-22 20:03 45.31063 9.88645 9091 ft 248 kts 104°
2026-04-22 20:04 45.30835 9.91108 8928 ft 256 kts 78°
2026-04-22 20:04 45.31592 9.93346 8796 ft 255 kts 46°
2026-04-22 20:04 45.33006 9.94856 8680 ft 258 kts 25°
2026-04-22 20:04 45.34743 9.95498 8554 ft 260 kts
2026-04-22 20:05 45.36545 9.95796 8369 ft 262 kts
2026-04-22 20:05 45.38351 9.96129 8072 ft 262 kts
2026-04-22 20:05 45.40155 9.96473 7744 ft 261 kts
2026-04-22 20:05 45.41947 9.96820 7412 ft 259 kts
2026-04-22 20:06 45.43728 9.97169 7075 ft 257 kts
2026-04-22 20:06 45.45495 9.97519 6751 ft 255 kts
2026-04-22 20:06 45.47250 9.97868 6409 ft 254 kts
2026-04-22 20:06 45.48997 9.98218 6037 ft 253 kts
2026-04-22 20:07 45.50728 9.98564 5762 ft 249 kts
2026-04-22 20:07 45.52417 9.98900 5563 ft 242 kts
2026-04-22 20:07 45.54055 9.99227 5400 ft 233 kts
2026-04-22 20:07 45.55637 9.99544 5246 ft 225 kts
2026-04-22 20:08 45.57158 9.99851 5118 ft 217 kts
2026-04-22 20:08 45.58621 10.00148 4976 ft 208 kts
2026-04-22 20:08 45.60026 9.99965 4720 ft 203 kts 336°
2026-04-22 20:08 45.61087 9.98711 4487 ft 197 kts 307°
2026-04-22 20:09 45.61776 9.97044 4251 ft 195 kts 295°
2026-04-22 20:09 45.62241 9.95234 4005 ft 192 kts 285°
2026-04-22 20:09 45.62582 9.93417 3760 ft 187 kts 284°
2026-04-22 20:09 45.62906 9.91643 3523 ft 182 kts 284°
2026-04-22 20:10 45.63226 9.89903 3282 ft 180 kts 284°
2026-04-22 20:10 45.63545 9.88182 3044 ft 175 kts 284°
2026-04-22 20:10 45.63840 9.86586 2828 ft 158 kts 284°
2026-04-22 20:10 45.64118 9.85085 2624 ft 157 kts 284°
2026-04-22 20:11 45.64398 9.83574 2412 ft 157 kts 284°
2026-04-22 20:11 45.64677 9.82067 2193 ft 157 kts 284°
2026-04-22 20:11 45.64956 9.80557 1985 ft 157 kts 284°
2026-04-22 20:11 45.65234 9.79060 1770 ft 156 kts 284°
2026-04-22 20:12 45.65510 9.77570 1570 ft 153 kts 285°
2026-04-22 20:12 45.65783 9.76084 1360 ft 156 kts 285°
2026-04-22 20:12 45.66058 9.74608 1130 ft 153 kts 287°
2026-04-22 20:12 45.66330 9.73157 904 ft 148 kts 287°
2026-04-22 20:13 45.66585 9.71764 772 ft 137 kts 286°
2026-04-22 20:13 45.66772 9.70772 778 ft 68 kts 285°
2026-04-22 20:13 45.66842 9.70395 784 ft 10 kts 285°
2026-04-22 20:13 45.66873 9.70225 787 ft 21 kts 285°
2026-04-22 20:14 45.66890 9.70051 787 ft 18 kts 261°
2026-04-22 20:14 45.66852 9.69912 787 ft 12 kts 242°
2026-04-22 20:14 45.66817 9.69820 787 ft 9 kts 241°
2026-04-22 20:14 45.66799 9.69735 788 ft 9 kts 274°
2026-04-22 20:15 45.66815 9.69638 788 ft 11 kts 284°
2026-04-22 20:15 45.66834 9.69525 789 ft 12 kts 284°
2026-04-22 20:15 45.66840 9.69486 790 ft 4 kts 284°
2026-04-22 20:15 45.66847 9.69444 790 ft 0 kts 274°
2026-04-22 20:16 45.66845 9.69439 790 ft 1 kts 247°
2026-04-22 20:16 45.66831 9.69423 790 ft 5 kts 208°
2026-04-22 20:16 45.66792 9.69407 791 ft 5 kts 193°
2026-04-22 20:16 45.66777 9.69402 791 ft 0 kts 192°